Location: France
(46.2276°N, 2.2137°E)
Time: 20:37:26
(UTC+02:00)

ISS - Pass Details

Date: 21 April 2026
Orbit: 414 x 424 km, 51.6° (Epoch: 12 May)

Event Time Altitude Azimuth Distance (km) Brightness Sun altitude
Exits shadow 06:15:24 - 239° (WSW) 1,550 -1.6 -7.1°
Reaches altitude 10° 06:15:32 10° 239° (WSW) 1,494 -1.6 -7.0°
Maximum altitude 06:18:54 83° 153° (SSE) 427 -3.7 -6.5°
Drops below altitude 10° 06:22:17 10° 64° (ENE) 1,507 1.0 -6.0°
Sets 06:24:24 0° 63° (ENE) 2,377 3.0 -5.7°
